Location: Kikino
(54.4440°N, 112.0940°W)
Time: 06:31:40
(UTC+00:00)

deb Explorer IX - Pass Details

Date: 26 May 2024
Orbit: 511 x 884 km, 38.7° (Epoch: 23 June)

Event Time Altitude Azimuth Distance (km) Brightness Sun altitude
Rises 05:46:44 0° 237° (WSW) 3,050 ? -11.4°
Reaches altitude 10° 05:51:01 10° 202° (SSW) 2,022 ? -11.7°
Enters shadow 05:51:40 11° 194° (SSW) 1,955 ? -11.7°
